sat.trackr.live / text

‹ back to catalog

AEHF-4 (USA 288)

NORAD 43651 · 2018-079A

PAYLOAD ACTIVE UNKNOWN

§ Identity

Operator
Country
US
Launch date
2018-10-17
Launch site
AFETR
Launch vehicle
Mass (kg)
RCS (m²)

Purposes: comms

External: N2YO · Heavens-Above · Gunter

§ Orbital elements

Epoch: 2026-05-25T03:55:45.145344Z

Period
1,436.14 min
Inclination
1.4284°
Eccentricity
0.0062076
Mean motion
1.00268724 rev/d
Perigee alt
35,525.7 km
Apogee alt
36,049.2 km
Semi-major
42,165.6 km
B*
0.0000e+0
RAAN
2.0364°
Arg perigee
357.3001°
Mean anomaly
234.8000°
Rev number
2,806

§ Raw data

AEHF-4 (USA 288)1 43651U 18079A   26145.16371696 -.00000277  00000+0  00000+0 0  99962 43651   1.4284   2.0364 0062076 357.3001 234.8000  1.00268724 28068

JSON: /api/v1/satellites/43651 · /tle

For live sub-satellite position, see the globe view (requires WebGL).

§ Visibility from observer

Set your observer location to see the next 7 days of passes ≥ 10°. The values pass through the URL so the page stays shareable.

No JS? Fill the form by hand. The geolocation button needs JavaScript.